User: anonymous   Login
Location: Unspecified
(0.0000°N, 0.0000°E)
Time: 10:15:44
(UTC+02:00)
Language:

Cosmos 2251 - Orbit

View from above orbital plane
View from above orbital plane
View from above satellite
View from above satellite

Ground track
Ground track

The orbit data is extracted from the following two-line orbital elements,

1 22675U 93036A   16119.38748432  .00000025  00000-0  18849-4 0  9991
2 22675  74.0391 253.1019 0024081 113.9578 246.4098 14.32471289194646
Epoch (UTC): 28 April 2016 09:17:58
Eccentricity: 0.0024081
inclination: 74.0391°
perigee height: 766 km
apogee height: 801 km
right ascension of ascending node: 253.1019°
argument of perigee: 113.9578°
revolutions per day: 14.32471289
mean anomaly at epoch: 246.4098°
orbit number at epoch: 19464

The dashed part of the orbit path shows where the satellite is in the earth's shadow,  

DLR